Flag for Germany Weather past 2 weeks in Andernach, Rhineland-Palatinate, Germany

Now
39 °F

Passing clouds.


Feels Like: 34 °F
Forecast: 41 / 52 °F
Wind: 7 mph from West

Location: Buechel

Current Time: Mar 30, 2015 at 10:28:55 PM

Latest Report: Mar 30, 2015 at 9:20 PM


Visibility: N/A

Pressure: 29.86 "Hg

Humidity: 61%

Dew point: 27 °F

Location of AndernachLocation

Historic Weather in Andernach — Graph

°F

Andernach temperature yesterday

Maximum temperature yesterday: 48 °F (at 12:20 AM)
Minimum temperature yesterday: 43 °F (at 11:20 PM)
Average temperature yesterday: 46 °F

Past Weeks' High & Low Weather Summary

 TemperatureHumidityPressure
High61 °F (Mar 18, 2:20 PM)100% (Mar 16, 3:20 AM)30.30 "Hg (Mar 16, 3:20 AM)
Low27 °F (Mar 23, 4:20 AM)39% (Mar 18, 2:20 PM)29.39 "Hg (Mar 29, 8:20 PM)
Average41 °F80%29.99 "Hg
* Reported Mar 15 8:20 PM — Mar 30 9:20 PM, Andernach, Weather by CustomWeather, © 2015

Note: Actual official high and low records may vary slightly from our data, if they occured in-between our weather recording intervals... More about our weather records

Advertising

Andernach weather history for previous 24 hours

 ConditionsComfort  
Time TempWeatherWind HumidityBarometerVisibility
9:20 PM
Mon, Mar 30
39 °FPassing clouds.7 mph61%29.86 "HgN/A
8:20 PM41 °FScattered clouds.9 mph53%29.86 "HgN/A
7:20 PM43 °FScattered clouds.10 mph49%29.86 "HgN/A
6:20 PM43 °FScattered clouds.13 mph53%29.83 "HgN/A
5:20 PM43 °FScattered clouds.17 mph53%29.83 "HgN/A
4:20 PM41 °FBroken clouds.15 mph76%29.80 "HgN/A
3:20 PM43 °FSprinkles. Broken clouds.17 mph71%29.77 "HgN/A
2:20 PM36 °FBroken clouds.18 mph93%29.74 "Hg4 mi
2:03 PM37 °FHeavy snow. Partly sunny.20 mph81%29.74 "Hg1 mi
1:20 PM43 °FBroken clouds.16 mph61%29.71 "HgN/A
12:20 PM43 °FBroken clouds.17 mph61%29.68 "HgN/A
11:20 AM43 °FBroken clouds.17 mph71%29.65 "HgN/A
10:20 AM39 °FBroken clouds.21 mph81%29.62 "HgN/A
9:20 AM41 °FBroken clouds.13 mph76%29.59 "HgN/A
8:20 AM37 °FBroken clouds.9 mph93%29.56 "HgN/A
7:20 AM39 °FPassing clouds.9 mph81%29.53 "HgN/A
6:20 AM41 °FPassing clouds.12 mph81%29.50 "HgN/A
5:20 AM39 °FPassing clouds.10 mph87%29.47 "Hg6 mi
4:20 AM39 °FMostly cloudy.16 mph87%29.47 "Hg6 mi
3:20 AM43 °FQuite cool.16 mph87%29.47 "Hg4 mi
2:20 AM41 °FQuite cool.13 mph93%29.47 "Hg6 mi
1:20 AM41 °FQuite cool.12 mph87%29.47 "HgN/A
12:20 AM41 °FQuite cool.14 mph87%29.47 "HgN/A
11:20 PM
Sun, Mar 29
43 °FQuite cool.22 mph81%29.47 "Hg5 mi
10:20 PM46 °FCool.23 mph82%29.42 "Hg5 mi
Weather by CustomWeather, © 2015

See weather overviewHow to use our weather pages